Wind_Speed
8 9 9 8 7 7 6 5 5 5 5 4 3 3 3 3 3 3 2 2 2 2 3 3 4 4 5 6 6 7 8 9 8 7 7 8 9 10 10 10 10 10 10
7 8 8 8 7 6 5 5 4 4 3 3 3 3 3 3 3 3 3 3 2 3 3 4 5 5 6 7 8 9 9 9 8 8 8 8 8 9 10 10 10 10 11
7 7 6 6 6 5 4 4 3 3 2 2 2 2 2 2 3 4 4 3 3 4 4 6 6 6 7 9 9 9 9 9 8 8 9 9 9 10 10 10 10 11 11
6 6 6 5 5 4 4 4 3 2 2 2 2 1 1 2 3 4 4 4 4 5 5 6 7 8 8 9 9 9 9 9 10 9 9 10 10 11 11 11 11 12 13
4 5 5 5 5 4 4 5 5 4 3 3 2 1 1 2 3 4 5 5 5 6 7 7 8 9 10 10 10 10 10 10 11 11 11 11 11 12 12 12 13 13 13
3 4 4 5 5 4 4 5 5 4 3 3 3 2 3 3 4 5 6 6 7 7 8 8 9 10 10 10 11 11 11 11 12 12 12 13 13 13 14 14 14 15 14
2 3 4 5 5 5 5 5 5 5 4 4 4 4 4 4 5 6 7 7 8 8 9 9 9 10 10 11 11 12 12 12 12 13 13 14 14 14 15 15 15 16 16
4 3 4 4 5 5 5 5 6 6 6 6 6 6 6 6 7 8 9 9 10 10 10 11 10 10 11 11 11 12 12 12 13 13 13 14 15 15 15 16 16 16 16
6 5 5 5 5 5 6 6 7 7 7 7 8 8 8 8 9 10 10 11 12 12 12 12 12 12 12 12 12 13 13 13 13 13 14 14 14 15 16 16 16 16 16
8 7 7 7 8 7 8 8 8 9 9 9 10 10 10 10 11 11 12 12 13 13 13 14 13 13 14 14 14 14 15 14 15 15 15 15 16 16 17 17 17 17 17
10 9 9 9 9 10 10 10 10 10 11 11 11 12 12 12 12 13 13 13 14 15 15 15 15 15 16 16 16 16 16 16 17 17 18 17 18 18 18 18 18 18 18
12 12 11 11 12 13 13 13 12 12 13 13 14 14 14 14 14 15 16 16 16 16 17 17 17 17 18 17 18 18 19 19 19 20 20 20 20 20 20 20 20 20 19
15 15 15 14 14 15 16 16 16 15 15 15 16 16 16 16 17 18 18 18 18 18 18 18 19 19 19 19 20 20 21 21 21 21 21 22 22 22 22 22 21 21 21
17 18 17 17 17 17 18 18 18 18 17 17 18 18 18 18 19 19 19 19 19 19 20 20 21 21 21 21 22 22 22 22 23 23 23 24 24 24 24 24 23 23 23
21 20 20 20 20 20 20 20 21 20 20 19 19 19 19 20 20 20 21 21 21 21 22 22 22 22 22 22 23 24 24 24 24 24 24 25 25 25 25 25 25 25 25
23 22 22 22 22 21 21 21 21 21 21 21 21 22 22 22 22 22 22 23 23 24 23 23 23 23 24 24 25 25 25 25 25 25 25 26 26 25 25 26 26 26 26
25 25 25 25 25 24 23 23 23 23 23 24 24 24 24 24 24 24 24 24 25 25 24 25 25 25 26 26 26 27 27 27 27 27 27 26 26 26 27 27 27 27 26
27 27 27 26 27 27 26 26 25 25 25 25 25 26 26 26 26 26 26 26 26 26 27 27 27 27 27 27 28 28 29 29 28 28 27 27 28 28 28 27 28 28 27
30 30 30 30 29 28 29 29 28 27 27 28 28 28 28 28 28 28 28 28 28 28 28 28 29 29 29 29 30 30 30 28 28 29 29 29 28 29 29 29 29 29 29
32 32 32 32 31 31 31 31 31 31 31 31 31 31 31 31 30 30 30 30 30 30 30 30 31 31 31 31 31 32 31 30 30 30 29 29 29 29 29 30 30 30 30
32 32 32 33 33 33 33 33 34 34 34 34 34 34 34 34 34 34 33 32 32 31 31 32 32 33 33 33 33 32 32 31 31 31 31 30 30 30 30 30 31 31 31
33 33 34 34 35 35 35 36 37 37 36 36 36 36 36 36 36 36 35 35 34 34 33 33 34 34 34 33 33 33 33 33 33 32 32 31 30 30 30 31 31 31 32
34 35 35 36 36 37 37 38 38 38 38 38 37 37 37 37 37 37 37 37 37 36 35 34 34 34 34 34 34 34 34 34 34 33 32 32 31 31 31 32 32 33 33
36 36 37 37 37 37 37 38 38 38 39 38 38 38 38 38 39 39 39 38 38 37 36 35 34 34 33 34 34 34 35 34 33 33 32 32 32 32 32 33 33 33 34
38 38 38 37 37 38 38 39 39 39 39 38 38 38 39 39 39 39 39 39 38 36 36 36 36 35 34 33 33 33 33 34 33 34 33 33 33 33 33 33 33 33 33
39 39 39 39 39 39 39 39 40 40 39 39 38 39 39 39 39 39 39 38 37 36 36 36 35 35 35 35 35 34 34 34 33 33 33 33 33 33 33 32 32 32 32
Wind_Direction
69 64 65 66 70 72 72 74 78 79 75 71 70 66 70 73 63 50 28 16 3 360 351 349 338 327 320 312 308 309 311 311 309 306 306 310 315 315 315 312 310 309 304
66 64 59 58 60 60 62 60 61 65 72 67 55 60 70 65 45 20 3 4 1 343 338 338 333 327 321 314 307 309 311 313 309 306 307 307 309 312 315 313 309 311 307
60 59 54 48 47 49 47 46 40 51 63 58 56 60 51 37 23 13 1 359 357 345 340 334 327 323 320 315 310 312 315 312 307 305 304 304 305 308 311 312 309 308 306
52 51 47 39 32 32 39 33 18 17 28 37 35 31 20 12 12 2 354 354 343 329 325 323 323 321 315 312 309 311 313 309 306 304 304 305 305 306 307 308 308 307 304
35 37 37 34 28 24 26 24 18 16 22 21 15 6 337 340 349 345 341 335 331 327 321 316 316 317 314 311 309 311 309 306 303 302 302 303 304 305 306 306 307 307 306
12 14 20 26 25 17 10 9 7 10 1 348 341 332 323 327 335 334 332 330 326 324 324 321 318 313 309 310 310 310 309 306 304 302 301 300 301 302 302 303 304 306 305
324 346 351 357 6 4 1 1 357 354 345 336 328 320 306 311 319 322 326 328 327 324 324 324 319 317 311 310 311 311 309 308 304 302 301 300 302 302 302 301 304 305 304
305 311 319 325 331 337 338 339 336 334 334 332 326 321 318 315 316 316 316 317 317 315 314 314 314 317 318 316 316 317 317 315 313 309 306 304 304 304 301 300 300 301 301
297 300 302 308 310 307 310 316 322 322 320 319 315 311 310 309 306 308 310 311 313 310 310 310 308 308 309 309 309 311 312 313 312 311 310 310 309 307 306 304 301 299 299
291 290 290 295 295 295 297 304 308 311 309 307 307 304 306 308 305 306 305 307 310 310 308 306 304 303 303 302 303 304 305 307 307 307 307 308 308 307 307 306 303 301 300
287 287 285 289 294 294 298 301 298 299 300 301 301 304 302 302 302 304 303 304 306 307 306 302 300 301 300 299 299 300 302 302 303 303 302 302 303 304 305 305 303 300 300
278 283 283 285 288 289 291 295 294 298 303 303 303 303 301 298 298 300 302 301 301 301 302 301 299 298 298 297 296 297 299 299 299 300 300 299 299 299 300 301 301 299 298
275 278 278 281 283 283 284 288 294 299 302 303 301 299 301 300 300 301 301 298 299 301 302 299 298 298 297 297 296 296 297 297 297 296 297 297 296 296 296 295 296 297 296
273 275 274 277 279 279 281 285 289 293 297 298 300 299 300 301 301 303 302 299 298 301 303 300 298 299 298 296 295 294 294 294 294 294 294 296 295 294 293 293 294 296 296
270 273 271 272 277 277 279 283 287 290 293 296 297 297 298 300 301 301 300 300 300 300 302 301 299 298 297 297 295 294 294 294 294 294 294 294 293 293 291 291 291 292 293
267 270 270 273 275 277 279 282 284 288 292 294 294 295 295 297 298 298 298 298 299 298 299 300 299 297 297 296 296 296 295 294 293 292 292 292 292 291 289 289 289 289 289
265 265 268 269 270 272 276 279 280 283 286 288 290 292 293 293 294 296 297 297 298 298 296 296 296 296 296 295 295 296 296 294 293 293 291 290 290 289 289 288 287 287 288
263 263 265 265 268 271 273 277 279 281 284 287 289 290 289 290 291 292 294 294 295 295 294 293 293 295 295 294 293 295 295 294 293 292 291 290 289 289 290 289 288 288 287
264 264 266 267 268 269 273 275 278 281 283 285 286 288 289 289 289 290 291 292 292 292 292 292 291 292 293 292 292 292 293 293 295 294 291 290 289 290 289 288 287 287 287
265 265 267 269 270 272 275 277 277 280 282 282 283 284 285 285 285 287 288 289 290 290 291 291 290 291 292 293 293 293 293 293 294 294 294 293 291 290 288 287 286 285 286
266 266 267 269 271 274 276 278 280 280 280 281 283 284 284 285 286 288 288 288 288 288 289 289 290 291 292 292 293 293 294 293 293 294 295 294 292 290 288 286 285 285 284
265 266 267 269 272 273 276 278 279 280 279 280 281 282 283 284 285 286 287 287 286 286 287 288 289 291 291 291 292 292 292 292 292 293 294 293 292 291 289 287 286 285 284
266 268 268 270 272 274 276 277 278 279 279 279 280 281 282 283 284 284 285 286 286 286 287 288 289 290 290 291 291 291 291 290 290 290 291 291 291 290 288 287 286 285 284
268 270 271 272 274 276 277 278 277 278 279 279 279 280 281 281 282 282 283 284 285 284 286 287 288 289 290 290 290 291 290 289 288 288 289 289 289 289 289 287 286 286 285
269 270 271 273 274 275 276 278 278 279 279 279 279 279 280 281 282 283 283 284 285 283 284 285 286 287 288 288 289 289 290 289 288 288 289 289 289 289 288 286 287 287 284
269 270 271 272 273 274 276 277 278 279 280 280 280 280 280 281 281 282 283 284 285 286 286 285 286 286 287 288 289 289 289 289 289 289 288 288 288 288 288 286 286 285 285
Height
5904 5903 5902 5902 5901 5901 5901 5901 5900 5900 5900 5899 5900 5900 5900 5899 5899 5899 5899 5898 5898 5898 5897 5896 5895 5895 5894 5893 5893 5892 5891 5890 5889 5889 5888 5888 5887 5885 5884 5883 5882 5880 5879
5906 5905 5904 5904 5903 5903 5902 5902 5901 5901 5900 5900 5900 5900 5900 5900 5900 5899 5899 5898 5897 5897 5896 5896 5895 5894 5893 5892 5891 5890 5889 5888 5887 5887 5886 5886 5886 5884 5883 5881 5880 5878 5877
5907 5906 5905 5905 5904 5904 5903 5903 5902 5901 5901 5900 5900 5900 5900 5900 5900 5899 5898 5897 5897 5896 5896 5895 5894 5893 5892 5891 5890 5889 5888 5887 5886 5885 5884 5883 5883 5882 5881 5879 5878 5876 5875
5908 5907 5906 5906 5905 5904 5904 5903 5903 5902 5901 5900 5900 5900 5900 5900 5899 5898 5898 5897 5896 5896 5895 5894 5893 5891 5890 5889 5888 5887 5886 5885 5884 5883 5882 5881 5880 5879 5878 5877 5876 5874 5872
5909 5908 5907 5906 5905 5905 5904 5903 5902 5902 5901 5900 5900 5900 5899 5899 5898 5898 5897 5896 5895 5894 5893 5892 5891 5890 5888 5887 5886 5885 5884 5883 5882 5881 5880 5878 5877 5876 5875 5874 5873 5871 5869
5909 5908 5908 5907 5906 5905 5904 5903 5902 5901 5901 5900 5900 5899 5899 5898 5898 5897 5896 5895 5894 5893 5892 5890 5889 5888 5887 5885 5884 5883 5882 5881 5879 5878 5877 5876 5874 5873 5872 5871 5869 5868 5866
5909 5908 5908 5907 5906 5905 5904 5903 5902 5901 5901 5900 5899 5899 5898 5898 5897 5896 5895 5894 5893 5892 5890 5889 5887 5886 5885 5883 5882 5881 5879 5878 5877 5876 5874 5873 5872 5870 5869 5867 5866 5864 5863
5909 5908 5907 5906 5905 5904 5904 5903 5902 5901 5900 5899 5898 5897 5897 5897 5896 5895 5894 5893 5891 5890 5889 5887 5885 5884 5883 5881 5880 5878 5877 5876 5874 5873 5872 5870 5868 5867 5865 5864 5862 5861 5859
5907 5906 5906 5905 5904 5903 5903 5902 5901 5900 5899 5898 5897 5896 5895 5895 5894 5893 5892 5891 5889 5888 5886 5884 5883 5882 5880 5879 5878 5876 5875 5873 5872 5870 5869 5867 5865 5863 5861 5860 5858 5857 5855
5905 5905 5904 5903 5903 5902 5901 5900 5900 5899 5898 5897 5896 5895 5894 5893 5892 5891 5889 5888 5886 5885 5883 5882 5880 5879 5877 5876 5875 5873 5872 5870 5869 5867 5865 5864 5862 5860 5858 5856 5854 5852 5851
5903 5903 5902 5901 5901 5900 5900 5898 5897 5897 5896 5895 5894 5893 5891 5890 5889 5888 5886 5885 5883 5882 5880 5879 5877 5876 5874 5872 5871 5870 5868 5867 5865 5863 5862 5860 5858 5856 5854 5852 5850 5848 5846
5902 5901 5900 5899 5899 5898 5897 5896 5895 5894 5893 5892 5891 5890 5889 5887 5886 5884 5883 5881 5880 5878 5877 5875 5873 5871 5870 5868 5867 5865 5864 5862 5860 5859 5857 5855 5853 5851 5849 5847 5845 5843 5841
5899 5898 5897 5897 5896 5895 5894 5893 5892 5891 5890 5889 5888 5887 5885 5884 5882 5880 5878 5877 5875 5874 5872 5870 5868 5867 5865 5863 5862 5860 5858 5857 5855 5853 5851 5850 5848 5846 5844 5842 5840 5838 5836
5895 5894 5894 5894 5893 5892 5891 5890 5889 5887 5886 5885 5883 5882 5881 5880 5878 5876 5874 5872 5871 5869 5868 5866 5864 5862 5860 5858 5856 5854 5853 5851 5849 5847 5845 5844 5841 5839 5837 5835 5834 5832 5830
5891 5890 5890 5889 5889 5888 5887 5886 5885 5883 5882 5881 5879 5878 5877 5875 5873 5872 5870 5868 5866 5864 5862 5860 5858 5856 5854 5852 5850 5848 5846 5845 5843 5841 5838 5836 5834 5832 5830 5828 5827 5825 5823
5885 5885 5884 5884 5884 5884 5883 5882 5880 5879 5877 5876 5874 5873 5872 5870 5868 5867 5865 5863 5861 5858 5856 5854 5852 5850 5848 5846 5844 5842 5840 5838 5836 5834 5831 5829 5827 5825 5823 5821 5819 5818 5816
5879 5879 5878 5878 5878 5878 5877 5876 5875 5874 5872 5871 5869 5867 5866 5864 5862 5860 5859 5857 5855 5852 5850 5848 5846 5844 5842 5839 5837 5835 5832 5830 5828 5826 5824 5822 5819 5817 5815 5813 5811 5810 5808
5872 5871 5871 5871 5871 5871 5870 5869 5869 5867 5866 5864 5862 5861 5859 5857 5856 5854 5852 5850 5848 5846 5844 5841 5839 5837 5835 5832 5830 5828 5825 5823 5820 5818 5816 5814 5812 5810 5808 5806 5804 5802 5800
5864 5864 5863 5863 5863 5863 5863 5862 5861 5860 5859 5857 5855 5854 5852 5850 5848 5846 5844 5842 5840 5838 5836 5834 5832 5830 5827 5825 5823 5820 5817 5814 5812 5810 5808 5806 5804 5802 5799 5797 5795 5794 5792
5855 5855 5855 5855 5855 5855 5854 5854 5853 5852 5851 5849 5848 5846 5844 5842 5840 5838 5836 5834 5832 5830 5828 5826 5824 5821 5819 5817 5814 5812 5809 5807 5805 5802 5800 5797 5795 5793 5790 5788 5787 5785 5784
5846 5847 5847 5847 5847 5847 5846 5845 5844 5843 5842 5840 5839 5837 5835 5833 5831 5829 5827 5825 5823 5821 5819 5818 5816 5813 5811 5808 5805 5802 5800 5798 5796 5794 5791 5789 5786 5784 5781 5779 5778 5776 5775
5837 5838 5838 5838 5837 5837 5836 5835 5834 5833 5831 5830 5829 5827 5825 5824 5822 5820 5818 5816 5814 5812 5810 5808 5806 5804 5801 5799 5796 5794 5791 5789 5786 5784 5782 5780 5777 5775 5772 5770 5769 5767 5765
5828 5828 5828 5828 5827 5827 5826 5825 5823 5822 5821 5819 5818 5817 5815 5813 5811 5810 5808 5806 5804 5802 5800 5798 5796 5794 5791 5789 5787 5784 5782 5779 5777 5775 5773 5770 5768 5765 5763 5761 5759 5757 5755
5817 5817 5817 5817 5816 5816 5815 5814 5812 5811 5810 5809 5807 5805 5804 5803 5801 5799 5797 5795 5793 5791 5789 5787 5785 5783 5781 5779 5777 5774 5772 5769 5767 5765 5763 5761 5758 5756 5754 5751 5749 5747 5745
5807 5807 5806 5806 5805 5805 5804 5802 5801 5800 5799 5797 5796 5794 5793 5791 5790 5788 5786 5784 5782 5780 5779 5777 5775 5773 5771 5769 5767 5764 5762 5759 5757 5755 5753 5751 5749 5746 5744 5741 5739 5737 5735
5795 5795 5795 5795 5794 5793 5792 5791 5790 5789 5787 5786 5784 5783 5781 5780 5778 5776 5775 5772 5771 5769 5767 5766 5764 5762 5760 5758 5756 5754 5752 5749 5747 5745 5743 5741 5739 5736 5734 5732 5730 5727 5726